UWE-3

Last updated on Tue Jan 14 2025 00:03:00 GMT+0000 (Coordinated Universal Time)

1 39446U 13066AG 25013.30976340 .00005859 00000+0 58966-3 0 9998 2 39446 97.8069 325.4645 0054089 246.5969 112.9556 14.90483222599954
UTC large
Height (km)
Speed (km/s)
/
Latitude / Longitude
Inclination (degrees)
Orbital Period (minutes)
Azimuth
Elevation
Range (km)
Doppler Factor

Next 0 passes for location: London (51.5072 / 0.1276)

Sorry there are no passes over London.